Regional Weather Roundup
Issued by NWS Newport/Morehead, NC

Current Version | Previous Version | Graphics & Text | Print | Product List | Glossary Off
Versions: 1 2 3 4 5 6 7 8 9 10 11 12 13 14 15 16 17 18 19 20 21 22 23 24 25 26 27 28 29 30 31 32 33 34 35 36 37 38 39 40 41 42 43 44 45 46 47 48 49 50

000
ASUS42 KMHX 250910
RWRMHX
WEATHER ROUNDUP FOR EASTERN NORTH CAROLINA
NATIONAL WEATHER SERVICE NEWPORT/MOREHEAD CITY NC
500 AM EDT FRI JUL 25 2014

NOTE: "FAIR" INDICATES FEW OR NO CLOUDS BELOW 12,000 FEET
WITH NO SIGNIFICANT WEATHER AND/OR OBSTRUCTIONS TO VISIBILITY

NCZ015>017-031-032-045>047-102-103-251000-
NORTH COAST

CITY           SKY/WX    TMP DP  RH WIND       PRES   REMARKS
EDENTON        CLOUDY    70  69  97 N8        29.96R
ELIZABETH CITY CLEAR     69  68  96 NW6       29.96R
KITTY HAWK     SUNNY     71  70  95 NW3       29.94R
MANTEO         NOT AVBL

$$

NCZ045>047-081-094-103-104-251000-
CENTRAL COAST

CITY           SKY/WX    TMP DP  RH WIND       PRES   REMARKS
FRISCO         MOCLDY    73  72  96 NW6       29.94R
SWANQUARTER      N/A     70 N/A N/A NW3G9     29.94R

$$

NCZ095-097-098-100-101-251000-
SOUTHERN COAST

CITY           SKY/WX    TMP DP  RH WIND       PRES   REMARKS
BEAUFORT       PTCLDY    74  69  85 NW12      29.96R
CEDAR ISLAND     N/A     73 N/A N/A NW13G20   29.97S
JACKSONVILLE   CLOUDY    70  69  97 NW6       29.97R FOG
NEWPORT        NOT AVBL
PINEY ISLAND   MOSUNNY   72  72 100 NW12      29.96R
WILMINGTON     CLOUDY    74  72  93 CALM      29.95S


$$

NCZ011>013-027>030-043-044-078>080-089-090>093-098-251000-
COASTAL PLAIN

CITY           SKY/WX    TMP DP  RH WIND       PRES   REMARKS
AHOSKIE        PTCLDY    68  66  94 CALM      30.00R
CLINTON        CLOUDY    69  69  99 N3        29.99R
ELIZABETHTOWN  CLOUDY    70  70 100 CALM      29.98R
GOLDSBORO      PTCLDY    67  67  99 N2        29.98R
GREENVILLE     CLOUDY    68  68 100 N6        30.00S FOG
HAVELOCK       PTCLDY    69  67  93 N7        29.98R
KENANSVILLE    CLOUDY    68  66  94 N3        29.99R
KINSTON        MOCLDY    67  67  98 CALM      30.00R
NEW BERN       CLOUDY    70  67  90 NW6       29.99R
RICHLANDS      CLOUDY    68  64  88 NW5       29.98R
ROANOKE RAPIDS NOT AVBL
ROCKY MOUNT    CLEAR     67  65  93 CALM      29.99R
WASHINGTON     CLOUDY    68  67  98 N5        29.98R
WHITEVILLE     CLOUDY    73  72  96 CALM      29.96S FOG

$$

AMZ130-135-150-152-154-156-158-170-250-252-270-ANZ085-086-088-633-658-670-251000-
MARINE OBSERVATIONS

STATION/POSITION TIME  TEMP    WIND        PRES    WAVE   SWELL
                       AIR SEA DIR/SP/G            HT/PER HT/PER
                 (UTC) (F)     (DEG/KT/KT) (MB)    (FT/S) (FT/S)
CHESAPEAKE LIGHT NOT AVBL
BUOY 44014       0900   76 78  360/ 10/ 12 1013.1    3/ 7   2/ 7
DUCK             0900   72 74  310/ 13/ 16 1012.9
2E DUCK          0900                        N/A     2/ 3
OREGON INLET     0900   73 77  320/  9/ 15 1013.7
BUOY 44095       0900      77                N/A     3/ 7
20E OREGON INLET NOT AVBL
HATTERAS CG      0900   76 80  320/ 16/ 19 1013.9
DIAMOND BUOY     0900          VRB 16/ 17  1013.0    3/ 8   2/ 8
CAPE LOOKOUT     0800   74     260/  4/  4 1013.3
BEAUFORT LAB     0900   72 80  320/  4/  6 1013.8
30 SE NEW RIVER  0900   78 81  200/ 14/ 16 1014.0    4/ 7   3/ 7
5 SE WRIGHTSVILL 0800   74 81  230/ 12/ 14   N/A
BUOY 41002       0755   82 82  240/ 19/ 23 1016.5    5/ 6   2/13
BUOY 41004       0900   83 83  230/ 14/ 17 1013.5    5/ 5   2/11

$$


USA.gov is the U.S. government's official web portal to all federal, state and local government web resources and services.